{"data":{"norad_id":67191,"epoch":"2026-09-19T13:59:10.413888Z","epoch_age_seconds":157889,"freshness":"FRESH","line1":"1 67191U 25303AE  26262.58275942  .00011198  00000+0  41589-3 0  9996","line2":"2 67191  43.0010 296.1310 0000865 278.7168  81.3586 15.27574921 42385","mean_motion":15.27574921,"eccentricity":8.65e-5,"inclination_deg":43.001,"raan_deg":296.131,"arg_perigee_deg":278.7168,"mean_anomaly_deg":81.3586,"bstar":0.00041589,"rev_number":4238,"period_min":94.267062139075,"perigee_km":482.47081052212,"apogee_km":483.65779834779,"semimajor_km":6861.201304435,"source":"CELESTRAK","updated_at":"2026-09-21T09:00:36.134873Z"}}